Preview of NWS' New Version of Forecast
This preview is not operational and should not be used for support decisions.

Regional Weather Roundup (RWR)

Issued by National Weather Service (NWS)

                            
000
ASUS42 KTBW 180116
RWRFL 
FLORIDA REGIONAL WEATHER ROUNDUP
NATIONAL WEATHER SERVICE TAMPA BAY RUSKIN FL
900 PM EDT SUN MAR 17 2019

NOTE: "FAIR" INDICATES FEW OR NO CLOUDS BELOW 12,000 FEET WITH NO
SIGNIFICANT WEATHER AND/OR OBSTRUCTIONS TO VISIBILITY.

FLZ001>010-012>015-112-114-115-180200-
PANHANDLE FLORIDA
  
CITY           SKY/WX    TMP DP  RH WIND       PRES   REMARKS
PENSACOLA      FAIR      57  37  47 CALM      30.18S                  
PENSACOLA NAS  MOCLDY    55  39  54 NW3       30.19R                  
MILTON NAS     FAIR      51  45  79 NW3       30.19S                  
CRESTVIEW      FAIR      54  42  64 CALM      30.20R                  
DUKE FIELD     FAIR      55  40  58 NW3       30.17S HAZE             
VALPARAISO     MOCLDY    58  35  42 N3        30.16F                  
PANAMA CITY    FAIR      55  47  74 CALM      30.16R                  
TYNDALL AFB    MOCLDY    60  40  48 NE3       30.16R                  
APALACHICOLA   FAIR      58  43  57 NE6       30.15R                  

STATION/POSITION SKY/WX   TEMP    WIND        PRES    WAVE   SWELL
                          AIR SEA DIR/SP/G            HT/PER HT/PER
                          (F)     (DEG/KT/KT) (MB)    (FT/S) (FT/S)
30.1N   87.6W                                 1022.2S   2/ 3
29.2N   88.2W                      20/ 14/ 19 1021.9F   3/ 5
PANAMA CITY BEAC           59 66   10/  4/  5 1021.8R
TOWER C                    60      50/ 11/ 11 1020.7F

$$
FLZ011-016>038-118-127-128-134-139-239-180200-
NORTH FLORIDA
  
CITY           SKY/WX    TMP DP  RH WIND       PRES   REMARKS
MARIANNA       FAIR      59  41  51 N5        30.17R                  
TALLAHASSEE    FAIR      58  45  62 NE3       30.16S                  
PERRY          CLOUDY    57  49  75 NE5       30.16S                  
LIVE OAK       PTCLDY    55  48  76 N3        30.17R                  
CROSS CITY     MOCLDY    56  50  80 NE8       30.15S                  
LAKE CITY      MOCLDY    52  48  87 E3        30.15S                  
GAINESVILLE    CLOUDY    60  50  69 N9        30.17S                  
WILLISTON        N/A    N/A N/A N/A MISG        N/A                   
PALATKA        CLOUDY   N/A N/A N/A N7        30.15S                  
MAYPORT NAS    CLOUDY    58  48  69 N10       30.16R                  
JACKSONVILLE   CLOUDY    54  48  80 N5        30.16R                  
JAX NAS        CLOUDY    58  46  64 N13       30.16R                  
JAX CECIL      CLOUDY   N/A N/A N/A N3        30.16R                  
FERNANDINA BEA MOCLDY    55  46  69 N5        30.16S                  
ST AUGUSTINE   CLOUDY    58  50  75 N13       30.16R                  
PALM COAST     CLOUDY    57  49  74 N12       30.13S                  

STATION/POSITION SKY/WX   TEMP    WIND        PRES    WAVE   SWELL
                          AIR SEA DIR/SP/G            HT/PER HT/PER
                          (F)     (DEG/KT/KT) (MB)    (FT/S) (FT/S)
SHELL POINT      NOT AVBL
KEATON BEACH               57      20/  5/  7 1021.0R
CEDAR KEY                  61      40/  6/ 10 1019.9R
FERNANDINA                 58 64  340/  6/  9 1022.1R
30.7N   81.3W                 63                N/A     3/ 5
MAYPORT                    57 63   10/  8/ 13 1021.1R
31.4N   80.9W              59 62   30/ 10/ 12 1021.1R   3/ 5   2/ 5
ST AUGUSTINE               58 63  360/ 19/ 21 1020.3R

$$
FLZ040-043>046-052-053-057-058-063-144-180200-
INTERIOR CENTRAL FLORIDA
  
CITY           SKY/WX    TMP DP  RH WIND       PRES   REMARKS
OCALA          CLOUDY    59  52  77 VRB3      30.14R                  
LEESBURG       CLOUDY    59  52  77 N13       30.14R                  
SANFORD        CLOUDY    59  53  80 N12       30.12R                  
ORLANDO EXEC   CLOUDY    61  53  75 N9        30.12R                  
ORLANDO INTL   CLOUDY    61  54  77 NE13      30.11R                  
KISSIMMEE      LGT RAIN  62  57  83 NE7       30.12R                  
WINTER HAVEN   CLOUDY    63  57  81 NE9       30.11S                  
LAKELAND       MOCLDY    63  57  82 NE10      30.10R                  
BARTOW         CLOUDY    64  57  77 N7        30.09R                  
SEBRING        FAIR      65  60  84 N13       30.08R                  
OKEECHOBEE       N/A     64  61  88 CALM      30.06R                  

$$
FLZ041-047-054-059-064-141-147-180200-
EAST CENTRAL FLORIDA
  
CITY           SKY/WX    TMP DP  RH WIND       PRES   REMARKS
DAYTONA BEACH  CLOUDY    58  54  86 N9        30.12S                  
DELAND         CLOUDY    55  52  88 N13       30.13R                  
NEW SMYRNA BEA CLOUDY    59  54  82 N12       30.13R                  
JFK SPACE CTR  CLOUDY    61  57  85 N12G17      N/A                   
TITUSVILLE     CLOUDY    63  55  77 N12       30.11R                  
CAPE CANAVERAL CLOUDY    62  57  83 N15G24    30.08R                  
PATRICK AFB    MOCLDY    63  61  95 N15G25    30.08R                  
MELBOURNE      CLOUDY    64  58  80 N15       30.08R                  
VERO BEACH     MOCLDY    66  62  87 N17       30.06R                  
FT PIERCE      FAIR      66  60  81 N8        30.06R                  
STUART         MOCLDY    68  63  83 N12G20    30.05S                  

STATION/POSITION SKY/WX   TEMP    WIND        PRES    WAVE   SWELL
                          AIR SEA DIR/SP/G            HT/PER HT/PER
                          (F)     (DEG/KT/KT) (MB)    (FT/S) (FT/S)
28.5N   80.2W              67     330/ 25/ 31 1018.1R   6/ 6   2/10
28.9N   78.5W              70 75   20/ 17/ 21 1017.3R   3/ 9   2/ 9
TRIDENT PIER               62 68  340/ 12/ 23 1020.0R
28.4N   80.5W                 68                N/A     3/ 6
27.5N   80.2W                 71                N/A     5/ 5

$$
FLZ050-056-061-142-242-148-248-149-249-151-251-155-255-
160-260-180200-
WEST CENTRAL FLORIDA
  
CITY           SKY/WX    TMP DP  RH WIND       PRES   REMARKS
CRYSTAL RIVER  CLOUDY    61  54  77 NE8       30.12S                  
INVERNESS      CLOUDY    61  57  88 NE9       30.13R                  
BROOKSVILLE    CLOUDY    62  55  77 NE6       30.12S                  
CLEARWATER AIR FAIR      63  59  88 E3        30.09S                  
ST PETE CLEARW LGT RAIN  65  60  84 NE7       30.09R                  
TAMPA INTL     CLOUDY    65  59  81 NE8       30.11R                  
TAMPA EXEC     CLOUDY    63  59  88 NE3       30.11R                  
PLANT CITY     CLOUDY    64  59  82 N7        30.12R                  
MACDILL AFB    LGT RAIN  66  58  77 E8        30.09R                  
PETER O KNIGHT CLOUDY    64  61  88 NE10      30.10R                  
ST PETERSBURG  CLOUDY    69  61  75 NE13      30.07R                  
SARASOTA       LGT RAIN  69  63  81 N5        30.07R                  
VENICE         DRIZZLE   72  66  83 N9        30.08R                  

STATION/POSITION SKY/WX   TEMP    WIND        PRES    WAVE   SWELL
                          AIR SEA DIR/SP/G            HT/PER HT/PER
                          (F)     (DEG/KT/KT) (MB)    (FT/S) (FT/S)
27.3N   84.2W                 73                N/A     3/ 5
CLEARWATER BEACH           67 74   30/  8/ 11 1019.2R
MIDDLE TAMPA BAY           69      40/ 11/ 13 1019.0R
VENICE                     72 73  340/ 14/ 15 1017.7R

$$
FLZ066-069-070-075>078-162-262-165-265-180200-
SOUTHWEST FLORIDA AND KEYS
  
CITY           SKY/WX    TMP DP  RH WIND       PRES   REMARKS
PUNTA GORDA    FAIR      72  64  76 N9        30.07R                  
FT MYERS       CLOUDY    73  66  78 NW8       30.04R                  
SOUTHWEST INTL MOCLDY    73  67  81 NW6       30.05R                  
NAPLES         MOCLDY    74  68  81 NW9       30.04R                  
MARCO ISLAND   FAIR      74  68  81 NW6       30.05R                  
IMMOKALEE      CLOUDY    75  66  73 NW5       30.02R                  
MARATHON       FAIR      79  67  66 W5        30.01S                  
KEY WEST NAS   FAIR      78  68  71 N5        30.02S                  
KEY WEST INTL  FAIR      78  69  73 CALM      30.02S                  

STATION/POSITION SKY/WX   TEMP    WIND        PRES    WAVE   SWELL
                          AIR SEA DIR/SP/G            HT/PER HT/PER
                          (F)     (DEG/KT/KT) (MB)    (FT/S) (FT/S)
NAPLES                     74 79  250/ 11/ 13 1017.1R
26.0N   85.6W              73 80   20/ 17/ 21 1018.3S   3/ 6   2/ 6
DRY TORTUGAS               76      50/  4/  4 1016.7R
SAND KEY                   76                 1016.6S
SOMBRERO KEY               77                 1016.0R

$$
FLZ067-068-071>074-168-172>174-180200-
SOUTHEAST FLORIDA 
  
CITY           SKY/WX    TMP DP  RH WIND       PRES   REMARKS
W PALM BEACH   MOCLDY    71  65  81 N10       30.04R                  
BOCA RATON     PTCLDY    73  68  83 NE9       30.02R                  
FT LAUDER-EXEC FAIR      76  71  85 NE6       30.01R                  
FT LAUDERDALE  MOCLDY    75  69  81 NE6       30.01R                  
POMPANO BEACH  MOCLDY    76  68  76 N7        30.01S                  
PEMBROKE PINES FAIR      75  69  81 NE7       30.03R                  
OPA LOCKA      CLOUDY    77  69  76 E6        30.02R                  
MIAMI          LGT RAIN  74  71  91 SE8       30.01R                  
WEST KENDALL   CLOUDY    75  67  76 CALM      30.01R                  
HOMESTEAD      FAIR      74  70  87 CALM      30.00R                  

STATION/POSITION SKY/WX   TEMP    WIND        PRES    WAVE   SWELL
                          AIR SEA DIR/SP/G            HT/PER HT/PER
                          (F)     (DEG/KT/KT) (MB)    (FT/S) (FT/S)
VIRGINIA KEY               77 79  190/  7/  8 1015.6R
LAKE WORTH                 71 79  360/ 16/ 20 1017.8R
FOWEY ROCKS                77 78  180/  8/  9 1016.3R
SETTLEMENT POINT           76     320/  5/  6 1016.0R

$$